Regional Weather Roundup
Issued by NWS

Home | Current Version | Previous Version | Text Only | Print | Product List | Glossary On
Versions: 1 2 3 4 5 6 7 8 9 10 11 12 13 14 15 16 17 18 19 20 21 22 23 24 25 26 27
000
ASUS45 KSLC 070010
RWRUT

UTAH REGIONAL WEATHER ROUNDUP
NATIONAL WEATHER SERVICE SALT LAKE CITY UT
600 PM MDT FRI MAY 06 2016

UTZ001>011-023>025-070100-

NORTHERN UTAH

CITY           SKY/WX    TMP DP  RH WIND       PRES   REMARKS
BRIGHAM CITY   CLOUDY    56  44  64 CALM      29.88R
HILL AFB       TSTM      51  46  84 NE6       29.86R
LOGAN          CLOUDY    55  44  66 W12       29.81R
OGDEN          LGT RAIN  53  48  83 NE9       29.85R
PROVO AIRPORT  PTSUNNY   59  43  55 N9        29.81F
SALT LAKE CITY CLOUDY    57  48  72 CALM      29.85R
VERNAL         LGT RAIN  61  38  42 SW18G26   29.83R
WENDOVER       CLOUDY    59  37  44 N24G31    29.77R
HEBER CITY     CLOUDY    54  37  54 SW12      29.86R

$$

UTZ012>022-026-027-070100-

SOUTHERN/CENTRAL UTAH

CITY           SKY/WX    TMP DP  RH WIND       PRES   REMARKS
BLANDING       PTSUNNY   60  31  34 S8        29.93S
BRYCE CANYON   CLOUDY    52  21  29 SW15      29.88R
CEDAR CITY     CLOUDY    57  28  33 S20G28    29.81R
DELTA          PTSUNNY   64  25  22 SE13      29.74S
HANKSVILLE     PTSUNNY   64  32  29 N3        29.81F
MILFORD        PTSUNNY   60  30  32 SW20G32   29.77R
MOAB/CYNLANDS  PTSUNNY   61  36  39 NW7       29.88R THUNDER
PRICE          CLOUDY    49  35  58 S21       29.94R
ST GEORGE      CLOUDY    57  37  47 SW21      29.86R
KANAB          PTSUNNY   52  43  71 W10G16    29.92R

$$

REGIONAL REPORTS     COLORADO/ARIZONA

CITY           SKY/WX    TMP DP  RH WIND       PRES   REMARKS
CRAIG, CO        N/A     66  33  29 SE13      29.84R
GRAND JUNCTION TSTM      58  39  49 NW20G25   29.84R
RIFLE          CLOUDY    73  23  15 SW9       29.77R
MONTROSE       CLOUDY    76  21  12 S16G25    29.79S
CORTEZ         CLOUDY    59  34  39 CALM      29.91R
PAGE, AZ       SUNNY     74  12   9 S20G29    29.73S
GRAND CANYON   CLOUDY    52  29  41 W22G36    29.91R
KINGMAN        PTSUNNY   56  44  64 E25       29.84F
FLAGSTAFF      MOSUNNY   50  20  30 S18G26    29.92S

$$

REGIONAL REPORTS    NEVADA/IDAHO/WYOMING

CITY           SKY/WX    TMP DP  RH WIND       PRES   REMARKS
LAS VEGAS, NV  CLOUDY    62  39  42 SE12G22   29.76F
ELY            PTSUNNY   52  32  46 SW17      29.84R
ELKO           CLOUDY    54  46  76 S10       29.78S THUNDER
POCATELLO, ID  CLOUDY    62  48  60 NE18      29.83F
BURLEY         CLOUDY    63  48  58 NE15G24   29.81R
EVANSTON, WY   LGT RAIN  47  40  76 VRB3      29.96R
ROCK SPRINGS   NOT AVBL
KEMMERER       HVY RAIN  41  37  87 S18G26    30.02R

$$




USA.gov is the U.S. government's official web portal to all federal, state and local government web resources and services.